Find Yunyao-1 56

NORAD ID: 63292 Int'l Des: NNA 2025-055 Owner: YYAO Country: CN operational
LEOCIRCULARRETROGRADESSO

Current View

Loading 3D Globe...

About Yunyao-1 56

Description loading...

Upcoming Passes

Passes for default location (London). Set your location on the main map for personalized predictions.

Altitude History

Loading altitude history...

Two-Line Element Set

1 63292U 25055B 26151.12035475 .00009369 00000-0 54970-3 0 9996
2 63292 97.6490 291.9510 0036058 209.1358 150.7861 15.11416047 66501
Epoch: May 31, 2026 • Age: 6 hours

Current Status

Altitude 556.5 km
Velocity 7.57 km/s
Sub-Earth Point -6.44°S, 94.04°W
Launch Date Mar 17, 2025
Age 1.2 years
Type other

Technical Details

Classification Payload
Mass 50.00 kg
Dry Mass 50.00 kg
Total Mass 50.00 kg
Length 2.00 m
Diameter 1.50 m
Span 5.00 m
Shape Box + pan
Manufacturer CGSTL
Bus Type YY-1
Phase Status In Orbit
Owner/State YYAO/CN

Most Searched